TOURFACTS.DK  
Stats and Facts from Tour de France.

Tour de France 2018 starts in 254 days
  Riders   Stages   Teams   Summits   Yearly  


 
Search by year

 2017 - St. 21:  14824 starters.
  5131 different riders.
  634 teams.
  2232 stages.
  454 restdays.
  439589.60 km.
  5653 abandonnees.


Top 3
Christopher Froome86:20:55
Rigoberto Uran86:21:49
Romain Bardet86:23:15
Warren Barguil169 pt.
Primoz Roglic80 pt.
Thomas De Gendt64 pt.
Michael Matthews359 pt.
André Greipel234 pt.
Edvald Boasson Hagen220 pt.
Simon Yates86:27:09
Louis Meintjes86:29:15
Emanuel Buchmann86:54:16
Facts from Tour de France 2014
  |   Stages.  |   Stage winners.  |   Days in yellow  |   Average speed.  |   Route.  |   Teams.  |   All riders.  |   Rookies.  |   Withdrawls.  |  

  |   GC.  |   Polka  |   Green  |   White  |   Summits. (In tour)  |   Summits. (Points)  |   Miscellaneous.  |  

Stage 14 on 19 - 07 - 2014
         Owning:    Vincenzo Nibali      Joaquim Rodriguez      Peter Sagan      Romain Bardet  

Pick a stage:  1 2 3 4 5 6 7 8 9 10 11 12 13 14 15 16 17 18 19 20 21
  GrenobleRisoul | Dist: 177.00 km.
Cat: 1Col du LautaretESPJoaquim Rodriguez
10 points
 
Cat: HCol de l'IzoardESPJoaquim Rodriguez
25 points
 
Cat: 1Montée de RisoulPOLRafal Majka
20 points
 

Average speed for all riders in stage:  32,524 km./hr.
    Place:Name:Team:Time:Km/h:
POLRafal MajkaRUSTinkoff Saxo05:08:27  +  00:00:00=34,430 
ITAVincenzo NibaliKAZAstana Pro Team05:08:51  +  00:00:24=34,386 
FRAJean-Christophe PeraudFRAAg2r La Mondiale05:08:53  +  00:00:26=34,382 
4 FRAThibaut PinotFRAFDJ.fr05:09:17  +  00:00:50=34,337 
5 FRARomain BardetFRAAg2r La Mondiale05:09:17  +  00:00:50=34,337 
6 USATejay Van GarderenUSABMC Racing Team05:09:21  +  00:00:54=34,330 
7 LUXFränk SchleckUSATrek Factory Racing05:09:28  +  00:01:01=34,317 
8 NEDLaurens ten DamNLDBelkin Pro Cycling05:09:34  +  00:01:07=34,306 
9 CZELeopold KönigDEUTeam NetApp – Endura05:09:47  +  00:01:20=34,282 
10 ESPAlejandro ValverdeESPMovistar Team05:09:51  +  00:01:24=34,275 
11 ESPHaimar ZubeldiaUSATrek Factory Racing05:09:51  +  00:01:24=34,275 
12 FRAPierre RollandFRATeam Europcar05:09:51  +  00:01:24=34,275 
13 ESPJon Izaguirre InsaustiESPMovistar Team05:10:45  +  00:02:18=34,175 
14 AUSMichael RogersRUSTinkoff Saxo05:11:01  +  00:02:34=34,146 
15 FRAJohn GadretESPMovistar Team05:11:04  +  00:02:37=34,141 
16 NEDBauke MollemaNLDBelkin Pro Cycling05:11:07  +  00:02:40=34,135 
17 LUXBen GastauerFRAAg2r La Mondiale05:11:11  +  00:02:44=34,128 
18 FRAArnold JeannessonFRAFDJ.fr05:11:36  +  00:03:09=34,082 
19 RUSYury TrofimovRUSTeam Katusha05:11:36  +  00:03:09=34,082 
20 FRANicolas EdetFRACofidis – Solutions Crédits05:11:47  +  00:03:20=34,062 
21 ENGSimon YatesAUSOrica - GreenEDGE05:11:52  +  00:03:25=34,053 
22 NEDSteven KruijswijkNLDBelkin Pro Cycling05:11:58  +  00:03:31=34,042 
23 FRABrice FeilluFRABretagne - Séché Environnement05:12:24  +  00:03:57=33,995 
24 PORRui CostaITALampre-Merida05:13:13  +  00:04:46=33,906 
25 FRATony GallopinBELLotto-Belisol Team05:13:26  +  00:04:59=33,883 
26 BELJurgen Van Den BroeckBELLotto-Belisol Team05:13:26  +  00:04:59=33,883 
27 AUSRichie PorteGBRSky Procycling05:13:43  +  00:05:16=33,852 
28 SUIMarcel WyssCHEIAM Cycling05:14:44  +  00:06:17=33,743 
29 WALGeraint ThomasGBRSky Procycling05:15:04  +  00:06:37=33,707 
30 ESPMikel NieveGBRSky Procycling05:15:04  +  00:06:37=33,707 
31 ESPJoaquim RodriguezRUSTeam Katusha05:15:19  +  00:06:52=33,680 
32 ITAAlessandro De MarchiITACannondale Pro Cycling05:15:22  +  00:06:55=33,675 
33 COLJosé SerpaITALampre-Merida05:15:35  +  00:07:08=33,652 
34 ITAMichele ScarponiKAZAstana Pro Team05:15:35  +  00:07:08=33,652 
35 ESPLuis Angel MateFRACofidis – Solutions Crédits05:15:57  +  00:07:30=33,613 
36 USABenjamin KingUSAGarmin Sharp05:17:22  +  00:08:55=33,463 
37 FRACyril GautierFRATeam Europcar05:17:34  +  00:09:07=33,442 
38 ITAGiovanni ViscontiESPMovistar Team05:18:40  +  00:10:13=33,326 
39 SVKPeter VelitsUSABMC Racing Team05:18:45  +  00:10:18=33,318 
40 FRAMickaël CherelFRAAg2r La Mondiale05:18:45  +  00:10:18=33,318 
41 USAPeter StetinaUSABMC Racing Team05:18:45  +  00:10:18=33,318 
42 NEDTom DumoulinNLDTeam Giant - Shimano05:18:45  +  00:10:18=33,318 
43 FRAAmaël MoinardUSABMC Racing Team05:18:45  +  00:10:18=33,318 
44 ESPJesus HerradaESPMovistar Team05:18:54  +  00:10:27=33,302 
45 BELJan BakelantsBELOmega Pharma – Quick Step05:19:24  +  00:10:57=33,250 
46 POLMichal KwiatkowskiBELOmega Pharma – Quick Step05:19:24  +  00:10:57=33,250 
47 FRAJérôme PineauCHEIAM Cycling05:19:24  +  00:10:57=33,250 
48 SUIMichael SchärUSABMC Racing Team05:20:03  +  00:11:36=33,182 
49 ESPJosé Joaquin RojasESPMovistar Team05:21:15  +  00:12:48=33,058 
50 FRARudy MolardFRACofidis – Solutions Crédits05:21:26  +  00:12:59=33,040 
51 URSTanel KangertKAZAstana Pro Team05:21:45  +  00:13:18=33,007 
52 URSRein TaaramäeFRACofidis – Solutions Crédits05:21:45  +  00:13:18=33,007 
53 FRASylvain ChavanelCHEIAM Cycling05:21:49  +  00:13:22=33,000 
54 SUIJakob FuglsangKAZAstana Pro Team05:22:01  +  00:13:34=32,980 
55 JPNChristopher HornerITALampre-Merida05:22:06  +  00:13:39=32,971 
56 SUIMartin ElmigerCHEIAM Cycling05:22:14  +  00:13:47=32,957 
57 SUIReto HollensteinCHEIAM Cycling05:22:14  +  00:13:47=32,957 
58 GERPaul VossDEUTeam NetApp – Endura05:22:14  +  00:13:47=32,957 
59 GERTony MartinBELOmega Pharma – Quick Step05:22:14  +  00:13:47=32,957 
60 ESPRubén PlazaESPMovistar Team05:22:14  +  00:13:47=32,957 
61 DENLars BakBELLotto-Belisol Team05:22:14  +  00:13:47=32,957 
62 ESPImanol ErvitiESPMovistar Team05:22:14  +  00:13:47=32,957 
63 FRAKévin RezaFRATeam Europcar05:22:14  +  00:13:47=32,957 
64 FRAAlexandre PichotFRATeam Europcar05:22:14  +  00:13:47=32,957 
65 USAMatthew BuscheUSATrek Factory Racing05:22:55  +  00:14:28=32,888 
66 FRAFlorian VachonFRABretagne - Séché Environnement05:23:49  +  00:15:22=32,796 
67 BELJohan VansummerenUSAGarmin Sharp05:23:49  +  00:15:22=32,796 
68 FRAFlorian GuillouFRABretagne - Séché Environnement05:23:49  +  00:15:22=32,796 
69 PORSergio PaulinhoRUSTinkoff Saxo05:23:59  +  00:15:32=32,779 
70 FRANicolas RocheRUSTinkoff Saxo05:23:59  +  00:15:32=32,779 
71 CANChristian MeierAUSOrica - GreenEDGE05:24:38  +  00:16:11=32,714 
72 FRABlel KadriFRAAg2r La Mondiale05:25:19  +  00:16:52=32,645 
73 FRAChristophe RiblonFRAAg2r La Mondiale05:25:19  +  00:16:52=32,645 
74 POLBartosz HuzarskiDEUTeam NetApp – Endura05:25:57  +  00:17:30=32,582 
75 FRAThomas VoecklerFRATeam Europcar05:26:05  +  00:17:38=32,568 
76 CZEJan BártaDEUTeam NetApp – Endura05:26:52  +  00:18:25=32,490 
77 FRAJérémy RoyFRAFDJ.fr05:27:18  +  00:18:51=32,447 
78 BELJens KeukeleireAUSOrica - GreenEDGE05:27:18  +  00:18:51=32,447 
79 SVKPeter SaganITACannondale Pro Cycling05:30:08  +  00:21:41=32,169 
80 ITADaniel OssUSABMC Racing Team05:30:08  +  00:21:41=32,169 
81 ITAMatteo MontagutiFRAAg2r La Mondiale05:30:08  +  00:21:41=32,169 
82 POLMichal GolasBELOmega Pharma – Quick Step05:30:08  +  00:21:41=32,169 
83 ITAMatteo TosattoRUSTinkoff Saxo05:30:21  +  00:21:54=32,148 
84 NEDKoen De KortNLDTeam Giant - Shimano05:30:21  +  00:21:54=32,148 
85 ESPMarkel IrizarUSATrek Factory Racing05:30:21  +  00:21:54=32,148 
86 ESPDavid LopezGBRSky Procycling05:30:21  +  00:21:54=32,148 
87 FRAMatthieu LadagnousFRAFDJ.fr05:30:21  +  00:21:54=32,148 
88 PORJosé João PimentaDEUTeam NetApp – Endura05:30:21  +  00:21:54=32,148 
89 AUSAdam HansenBELLotto-Belisol Team05:30:21  +  00:21:54=32,148 
90 BELGreg Van AvermaetUSABMC Racing Team05:30:21  +  00:21:54=32,148 
91 URSGatis SmukulisRUSTeam Katusha05:30:34  +  00:22:07=32,127 
92 SUIGregory RastUSATrek Factory Racing05:30:34  +  00:22:07=32,127 
93 NEDLars BoomNLDBelkin Pro Cycling05:31:07  +  00:22:40=32,073 
94 NEDBram TankinkNLDBelkin Pro Cycling05:31:07  +  00:22:40=32,073 
95 ITAMarco MarcatoITACannondale Pro Cycling05:33:51  +  00:25:24=31,811 
96 ITAFabio SabatiniITACannondale Pro Cycling05:33:51  +  00:25:24=31,811 
97 FRASébastien MinardFRAAg2r La Mondiale05:33:51  +  00:25:24=31,811 
98 BELJürgen RoelandtsBELLotto-Belisol Team05:33:51  +  00:25:24=31,811 
99 ITAAlessandro VanottiKAZAstana Pro Team05:33:51  +  00:25:24=31,811 
100 GERJens VoigtUSATrek Factory Racing05:33:51  +  00:25:24=31,811 
101 UKRAndriy GrivkoKAZAstana Pro Team05:33:51  +  00:25:24=31,811 
102 FRASamuel DumoulinFRAAg2r La Mondiale05:33:51  +  00:25:24=31,811 
103 AUSSimon ClarkeAUSOrica - GreenEDGE05:33:51  +  00:25:24=31,811 
104 PORTiago PintoDEUTeam NetApp – Endura05:33:51  +  00:25:24=31,811 
105 AUSSimon GerransAUSOrica - GreenEDGE05:33:51  +  00:25:24=31,811 
106 FRAAnthony DelaplaceFRABretagne - Séché Environnement05:33:51  +  00:25:24=31,811 
107 HRVKristijan DurasekITALampre-Merida05:33:51  +  00:25:24=31,811 
108 FRAArmindo FonsecaFRABretagne - Séché Environnement05:33:51  +  00:25:24=31,811 
109 SUISébastien ReichenbachCHEIAM Cycling05:33:51  +  00:25:24=31,811 
110 NEDRoy CurversNLDTeam Giant - Shimano05:33:51  +  00:25:24=31,811 
111 CANSvein TuftAUSOrica - GreenEDGE05:33:51  +  00:25:24=31,811 
112 SLOSimon SpilakRUSTeam Katusha05:33:51  +  00:25:24=31,811 
113 NEDLieuwe WestraKAZAstana Pro Team05:33:51  +  00:25:24=31,811 
114 AUSLuke DurbridgeAUSOrica - GreenEDGE05:33:51  +  00:25:24=31,811 
115 FRAJean-Marc BideauFRABretagne - Séché Environnement05:33:51  +  00:25:24=31,811 
116 SUIMichael AlbasiniAUSOrica - GreenEDGE05:33:51  +  00:25:24=31,811 
117 PORNelson OliveiraITALampre-Merida05:33:51  +  00:25:24=31,811 
118 USADanny PateGBRSky Procycling05:33:51  +  00:25:24=31,811 
119 POLMaciej BodnarITACannondale Pro Cycling05:33:51  +  00:25:24=31,811 
120 FRAPerrig QuemeneurFRATeam Europcar05:33:51  +  00:25:24=31,811 
121 FRACédric PineauFRAFDJ.fr05:33:51  +  00:25:24=31,811 
122 USAAlex HowesUSAGarmin Sharp05:33:51  +  00:25:24=31,811 
123 FRABryan CoquardFRATeam Europcar05:33:51  +  00:25:24=31,811 
124 NZLJack BauerUSAGarmin Sharp05:33:51  +  00:25:24=31,811 
125 NEDTom-Jelte SlagterUSAGarmin Sharp05:33:51  +  00:25:24=31,811 
126 FRAArnaud GérardFRABretagne - Séché Environnement05:33:51  +  00:25:24=31,811 
127 FRAJulien SimonFRACofidis – Solutions Crédits05:33:51  +  00:25:24=31,811 
128 DENMichael MørkøvRUSTinkoff Saxo05:33:51  +  00:25:24=31,811 
129 JPNYukiya ArashiroFRATeam Europcar05:33:51  +  00:25:24=31,811 
130 KAZDmitriy GruzdevKAZAstana Pro Team05:33:51  +  00:25:24=31,811 
131 NEDTom LeezerNLDBelkin Pro Cycling05:33:51  +  00:25:24=31,811 
132 KAZMaxim IglinskiyKAZAstana Pro Team05:33:51  +  00:25:24=31,811 
133 NEDAlbert TimmerNLDTeam Giant - Shimano05:33:51  +  00:25:24=31,811 
134 FRAYohann GèneFRATeam Europcar05:33:51  +  00:25:24=31,811 
135 NEDNiki TerpstraBELOmega Pharma – Quick Step05:33:51  +  00:25:24=31,811 
136 BLRVasil KiryienkaGBRSky Procycling05:35:12  +  00:26:45=31,683 
137 ITAMatteo TrentinBELOmega Pharma – Quick Step05:35:34  +  00:27:07=31,648 
138 AUTBernhard EiselGBRSky Procycling05:36:07  +  00:27:40=31,596 
139 SLOKristjan KorenITACannondale Pro Cycling05:36:07  +  00:27:40=31,596 
140 GERMarcus BurghardtUSABMC Racing Team05:36:07  +  00:27:40=31,596 
141 GERMarcel KittelNLDTeam Giant - Shimano05:36:07  +  00:27:40=31,596 
142 GERAndré GreipelBELLotto-Belisol Team05:36:07  +  00:27:40=31,596 
143 ITAAlessandro PetacchiBELOmega Pharma – Quick Step05:36:07  +  00:27:40=31,596 
144 RUSVladimir IsaichevRUSTeam Katusha05:36:07  +  00:27:40=31,596 
145 GERMarcel SiebergBELLotto-Belisol Team05:36:07  +  00:27:40=31,596 
146 GERJohn DegenkolbNLDTeam Giant - Shimano05:36:07  +  00:27:40=31,596 
147 FRARomain FeilluFRABretagne - Séché Environnement05:36:07  +  00:27:40=31,596 
148 NEDTom VeelersNLDTeam Giant - Shimano05:36:07  +  00:27:40=31,596 
149 FRABenoît JarrierFRABretagne - Séché Environnement05:36:07  +  00:27:40=31,596 
150 ESPBeñat IntxaustiESPMovistar Team05:36:07  +  00:27:40=31,596 
151 GERAndreas SchillingerDEUTeam NetApp – Endura05:36:07  +  00:27:40=31,596 
152 NORAlexander KristoffRUSTeam Katusha05:36:07  +  00:27:40=31,596 
153 FRAMickael DelageFRAFDJ.fr05:36:07  +  00:27:40=31,596 
154 ITAElia VivianiITACannondale Pro Cycling05:36:07  +  00:27:40=31,596 
155 ITADaniele BennatiRUSTinkoff Saxo05:36:07  +  00:27:40=31,596 
156 AUSHeinrich HausslerCHEIAM Cycling05:36:07  +  00:27:40=31,596 
157 AUSMark RenshawBELOmega Pharma – Quick Step05:36:07  +  00:27:40=31,596 
158 GERRoger KlugeCHEIAM Cycling05:36:07  +  00:27:40=31,596 
159 AUSZakkari DempsterDEUTeam NetApp – Endura05:36:07  +  00:27:40=31,596 
160 CHNCheng JiNLDTeam Giant - Shimano05:36:07  +  00:27:40=31,596 
161 BELMaarten WynantsNLDBelkin Pro Cycling05:36:07  +  00:27:40=31,596 
162 FRAAdrien PetitFRACofidis – Solutions Crédits05:36:07  +  00:27:40=31,596 
163 FRAWilliam BonnetFRAFDJ.fr05:36:07  +  00:27:40=31,596 
164 FRAArnaud DémareFRAFDJ.fr05:36:07  +  00:27:40=31,596 
165 ITADavide CimolaiITALampre-Merida05:36:07  +  00:27:40=31,596 
166 FRAJean-Marc MarinoITACannondale Pro Cycling05:36:07  +  00:27:40=31,596 
167 FRACyril LemoineFRACofidis – Solutions Crédits05:36:07  +  00:27:40=31,596 
168 BELSep VanmarckeNLDBelkin Pro Cycling05:36:07  +  00:27:40=31,596 
169 ITALuca PaoliniRUSTeam Katusha05:36:07  +  00:27:40=31,596 
170 URSRamunas NavardauskasUSAGarmin Sharp05:36:07  +  00:27:40=31,596 
171 NEDSebastian LangeveldUSAGarmin Sharp05:36:07  +  00:27:40=31,596 

Withdrawls: 2
 
Rider
Team
Reason
105  BELDries DevenynsNLDTeam Giant - ShimanoDid not finish
119  ESPRafael Valls FerriITALampre-MeridaDid not finish

Todays birthdays.

1886  Jean Meziere
1887  Pierre Herbette
1887  Octave Lapize
1898  Felix Manthey
1920  René Biever
1920  Georges Ramoulux
1928  René Marigil
1940  Jean-Pierre Genet
1944  Giannino Bianco
1945  Eddy Cael
1950  Bert Pronk
1954  Marc Dierickx
1961  Chris Carmichael
1973  Levi Leipheimer